DELTA 1 DEB

Satellite information

Favourite Embed

Satellite Type and Status

DEBRISIN ORBIT

Key statistics

Satellite DELTA 1 DEB at a glance.

Uptime

17816

Days in orbit

Revolutions

≈ 11.7

Per day

Orbit

MEO

Medium Earth Orbit

Inclination

102.6

Latest

Satellite identification and parameters

Extended collection of information and parameters for DELTA 1 DEB.

Object identification

Identified? True

Debris? True

Object name: DELTA 1 DEB

International designator: 1976-077BK

Object number (NORAD): 10762

Object ID (CCSDS): 10762

Country: UNITED STATES OF AMERICA (US)

Current information (Y/N): Y

RCS size: MEDIUM

Orbital parameters

Period: 123.081 minutes

Inclination: 102.5524 deg

SMA: 8196.357 km

Apoapsis: 2462.134 km

Periapsis: 1174.31 km

RAAN: 237.7544 deg

Eccentricy: 0.0785608

Argument of periapsis: 242.5503 deg

Mean anomaly: 109.3527 deg

Mean motion: 11.69961187 rev/day

Mean motion (dot): 0.00021048 rev/day2

B* drag term: 0.16895 1/REarth

Two-line elements (TLE)

Creation date: May 9, 2025, 2:46 a.m.

Reference frame: TEME

Reference center: EARTH

Epoch: May 8, 2025, 2:02 p.m. UTC

TLE line 0: 0 DELTA 1 DEB

TLE line 1: 1 10762U 76077BK 25128.58522889 .00021048 00000-0 16895+0 0 9991

TLE line 2: 2 10762 102.5524 237.7544 0785608 242.5503 109.3527 11.69961187547398

Live tracking on map

Real-time ground track for satellite DELTA 1 DEB.

In-orbit conjunctions

A list of the most updated potential collisions computed for object DELTA 1 DEB.

Target Orbit TCA Probability of collision Miss distance Type
SECOR 4 (EGRS 4) SSO 2024-12-19 10:00:23 0.0001821489 992.0 (m) PAYLOAD

Associated space launch

Meteorological satellite using radiometric imaging

DELTA 1 DEB was lifted into orbit during the mission ‘Delta 2310 | NOAA 5’, on board a Delta 2310 space rocket.

The launch took place on July 29, 1976, 5:07 p.m. from Space Launch Complex 2W.

For more information about the launch, click the button.

Launch to space Delta 2310 | NOAA 5
Delta 2310 | NOAA 5

Agency: N/A

Status: Launch Successful

Launch date: July 29, 1976, 5:07 p.m. UTC

Rocket: Delta 2310

Launch pad: Space Launch Complex 2W

Location: Vandenberg SFB, CA, USA

...

Latest news about this satellite

There are no fresh news available about this satellite. Check back as we update our databases every day.


Newsletter sign-up

Weekly statistics, charts and insights to help you stay on top of the space industry.